Overview Statistics Trail Chart Weather Telemetry Raw packets
 

This is the latest recevied weather packets stored in our database for station/object DB0OHL. If no packets are shown the sender has not sent any weather packets the latest 10 day(s).

<< 36 37 38 39 40 41 42 >>
Time Temp. Humidity Pressure Rain* Wind** Luminosity Snow
1777264522 6.11° C 93% 1024.5 hPa 0 mm - - -
1777263920 5.56° C 93% 1024.4 hPa 0 mm - - -
1777263317 6.11° C 93% 1024.6 hPa 0 mm - - -
1777262715 6.11° C 92% 1024.4 hPa 0 mm - - -
1777262172 6.11° C 91% 1024.3 hPa 0 mm - - -
1777261570 6.11° C 92% 1024.2 hPa 0 mm - - -
1777260967 6.11° C 92% 1024.2 hPa 0 mm - - -
1777260365 6.11° C 92% 1024.2 hPa 0 mm - - -
1777259762 6.11° C 92% 1024.2 hPa 0 mm - - -
1777259160 6.11° C 92% 1024.2 hPa 0 mm - - -
1777258557 6.67° C 92% 1024.2 hPa 0 mm - - -
1777257955 6.67° C 91% 1024.3 hPa 0 mm - - -
1777257352 6.67° C 89% 1024.1 hPa 0 mm - - -
1777256750 6.67° C 89% 1024.3 hPa 0 mm - - -
1777256147 6.67° C 88% 1024.1 hPa 0 mm - - -
1777255545 6.67° C 86% 1024.1 hPa 0 mm - - -
1777254942 6.67° C 85% 1024.1 hPa 0 mm - - -
1777254339 7.22° C 83% 1024.2 hPa 0 mm - - -
1777253737 7.22° C 81% 1024.1 hPa 0 mm - - -
1777253134 7.22° C 78% 1024.1 hPa 0 mm - - -
1777252532 7.78° C 78% 1024.1 hPa 0 mm - - -
1777251929 7.78° C 77% 1024.1 hPa 0 mm - - -
1777251327 7.78° C 75% 1024.1 hPa 0 mm - - -
1777250724 7.78° C 73% 1024 hPa 0 mm - - -
1777250122 7.78° C 71% 1024.1 hPa 0 mm - - -

* Rain latest hour (hover to see other rain measurements)
** Current wind speed in m/s (hover to see current wind gust speed)